Weather History for Alexandroupoli, Greece

Change the Weather History Date:

Saturday, February 2, 2013

  Actual Average Record
Temperature  
Mean Temperature 45 °F -  
Max Temperature 55 °F 49 °F 62 °F (2002)
Min Temperature 35 °F 35 °F 19 °F (2011)
Degree Days  
Heating Degree Days 20    
Moisture  
Dew Point 42 °F    
Average Humidity 81    
Maximum Humidity 93    
Minimum Humidity 66    
Precipitation  
Precipitation 0.00 in 0.08 in - ()
Sea Level Pressure  
Sea Level Pressure 29.81 in    
Wind  
Wind Speed - ()    
Max Wind Speed -    
Max Gust Speed -    
Visibility 6.0 miles    
Events      
Averages and records for this station are not official NWS values.
T = Trace of Precipitation, MM = Missing Value Source: Averaged Metar Reports

Daily Weather History Graph

Daily Weather History Graph

Search for Another Location

Airport:

Trip Planner

Search our weather history database for the weather conditions in past years. The results will help you decide how hot, cold, wet, or windy it might be!

Date:

Astronomy

Feb. 02, 2013 Rise Set
Actual Time 7:25 AM EET 5:34 PM EET
Civil Twilight 6:56 AM EET 6:03 PM EET
Nautical Twilight 6:23 AM EET 6:36 PM EET
Astronomical Twilight 5:51 AM EET 7:08 PM EET
Moon No Moon Rise 10:20 AM EET
Length of Visible Light 11h 07m
Length of Day
10h 09m
Waning Gibbous, 63% of the Moon is Illuminated
Feb 2
Waning Gibbous
Feb 3
Last Quarter
Feb 10
New
Feb 17
First Quarter
Feb 25
Full

Hourly Weather History & Observations

Time (EET) Temp. Dew Point Humidity Pressure Visibility Wind Dir Wind Speed Gust Speed Precip Events Conditions
12:20 AM 37.4 °F 32.0 °F 81% 29.95 in - North - - N/A   Clear
12:50 AM 37.4 °F 33.8 °F 87% 29.92 in - North - - N/A   Scattered Clouds
1:20 AM 37.4 °F 33.8 °F 87% 29.92 in - North - - N/A   Scattered Clouds
1:50 AM 35.6 °F 32.0 °F 87% 29.92 in - North - - N/A   Partly Cloudy
2:00 AM 36 °F 33 °F 82% 29.93 in 6 mi Calm Calm - -   Scattered Clouds
2:20 AM 35.6 °F 32.0 °F 87% 29.92 in - North - - N/A   Partly Cloudy
2:50 AM 35.6 °F 33.8 °F 93% 29.92 in - North - - N/A   Scattered Clouds
3:20 AM 35.6 °F 33.8 °F 93% 29.92 in - North - - N/A   Scattered Clouds
4:50 AM 35.6 °F 32.0 °F 87% 29.92 in - North - - N/A   Partly Cloudy
5:20 AM 35.6 °F 32.0 °F 87% 29.92 in - North - - N/A   Partly Cloudy
5:50 AM 35.6 °F 32.0 °F 87% 29.92 in - North - - N/A   Scattered Clouds
6:50 AM 37.4 °F 33.8 °F 87% 29.86 in - North - - N/A   Partly Cloudy
7:20 AM 37.4 °F 33.8 °F 87% 29.86 in - North - - N/A   Partly Cloudy
7:50 AM 41.0 °F 33.8 °F 76% 29.83 in - North - - N/A   Scattered Clouds
8:00 AM 42 °F 35 °F 66% 29.84 in 6 mi Calm Calm - -   Partly Cloudy
8:20 AM 42.8 °F 35.6 °F 76% 29.83 in - North - - N/A   Scattered Clouds
8:50 AM 42.8 °F 35.6 °F 76% 29.83 in - North - - N/A   Scattered Clouds
9:20 AM 44.6 °F 35.6 °F 71% 29.83 in - North - - N/A   Scattered Clouds
9:50 AM 44.6 °F 35.6 °F 71% 29.80 in - North - - N/A   Scattered Clouds
10:20 AM 46.4 °F 37.4 °F 71% 29.80 in - North - - N/A   Scattered Clouds
10:50 AM 51.8 °F 46.4 °F 82% 29.80 in - North - - N/A   Mostly Cloudy
11:20 AM 51.8 °F 46.4 °F 82% 29.80 in - North - - N/A   Mostly Cloudy
11:50 AM 51.8 °F 46.4 °F 82% 29.80 in - North - - N/A   Overcast
12:20 PM 53.6 °F 46.4 °F 77% 29.80 in - North - - N/A   Overcast
12:50 PM 53.6 °F 46.4 °F 77% 29.77 in - North - - N/A   Overcast
1:20 PM 53.6 °F 46.4 °F 77% 29.77 in - North - - N/A   Overcast
1:50 PM 55.4 °F 48.2 °F 77% 29.74 in - North - - N/A   Overcast
2:00 PM 55 °F 48 °F 71% 29.77 in 6 mi Calm Calm - -   Overcast
2:20 PM 55.4 °F 48.2 °F 77% 29.74 in - North - - N/A   Overcast
2:50 PM 55.4 °F 48.2 °F 77% 29.74 in - North - - N/A   Mostly Cloudy
3:20 PM 55.4 °F 48.2 °F 77% 29.74 in - North - - N/A   Mostly Cloudy
4:20 PM 55.4 °F 48.2 °F 77% 29.74 in - North - - N/A   Mostly Cloudy
4:50 PM 53.6 °F 48.2 °F 82% 29.74 in - North - - N/A   Mostly Cloudy
5:20 PM 53.6 °F 48.2 °F 82% 29.74 in - North - - N/A   Mostly Cloudy
5:50 PM 51.8 °F 46.4 °F 82% 29.74 in - North - - N/A   Scattered Clouds
6:20 PM 51.8 °F 46.4 °F 82% 29.74 in - North - - N/A   Scattered Clouds
6:50 PM 50.0 °F 46.4 °F 87% 29.74 in - North - - N/A   Scattered Clouds
7:50 PM 55.4 °F 50.0 °F 82% 29.74 in - North - - N/A   Scattered Clouds
8:00 PM 55 °F 51 °F 80% 29.75 in 6 mi Calm Calm - -   Scattered Clouds
8:20 PM 55.4 °F 50.0 °F 82% 29.74 in - North - - N/A   Scattered Clouds
8:50 PM 55.4 °F 50.0 °F 82% 29.74 in - North - - N/A   Scattered Clouds
9:20 PM 55.4 °F 50.0 °F 82% 29.74 in - North - - N/A   Scattered Clouds
9:50 PM 55.4 °F 50.0 °F 82% 29.74 in - North - - N/A   Scattered Clouds
10:20 PM 55.4 °F 50.0 °F 82% 29.74 in - North - - N/A   Scattered Clouds
10:50 PM 55.4 °F 51.8 °F 88% 29.74 in - North - - N/A   Scattered Clouds
11:20 PM 55.4 °F 51.8 °F 88% 29.74 in - North - - N/A   Scattered Clouds
11:50 PM 55.4 °F 51.8 °F 88% 29.74 in - North - - N/A   Scattered Clouds